Home   Weather   St Helens   Past weeks

Flag for United Kingdom Past Weather in St Helens, England, United Kingdom — Yesterday and Last 2 Weeks

48 °F


Feels Like: 43 °F
Forecast: 44 / 53 °F
Wind: 12 mph from Northeast

Location: Liverpool Airport

Current Time: Oct 24, 2016 at 11:48:51 AM

Latest Report: Oct 24, 2016 at 11:20 AM

Visibility: 10 mi

Pressure: 29.98 "Hg

Humidity: 87%

Dew Point: 45 °F

Location of St HelensLocation

Past Weather in St Helens — Graph


St Helens Temperature Yesterday

Maximum temperature yesterday: 54 °F (at 2:20 PM)
Minimum temperature yesterday: 41 °F (at 12:50 AM)
Average temperature yesterday: 47 °F

High & Low Weather Summary for the Past Weeks

High61 °F (Oct 12, 1:50 PM)100% (Oct 10, 7:50 AM)30.45 "Hg (Oct 10, 7:50 AM)
Low41 °F (Oct 22, 3:20 AM)55% (Oct 10, 3:50 PM)29.62 "Hg (Oct 15, 5:20 AM)
Average51 °F83%30.05 "Hg
* Reported Oct 9 10:20 AM — Oct 24 10:50 AM, St Helens, Weather by CustomWeather, © 2016

Note: Actual official high and low records may vary slightly from our data, if they occured in-between our weather recording intervals... More about our weather records


St Helens Weather History for the Previous 24 Hours

Scroll right to see more
Time TempWeatherWind HumidityBarometerVisibility
10:50 AM
Mon, Oct 24
48 °FSunny.14 mph82%29.98 "Hg10 mi
10:20 AM46 °FSunny.13 mph87%29.98 "Hg10 mi
9:50 AM46 °FPassing clouds.13 mph82%29.98 "HgN/A
9:20 AM45 °FPassing clouds.13 mph87%29.98 "HgN/A
8:50 AM45 °FSunny.13 mph87%29.98 "Hg10 mi
8:20 AM45 °FSunny.12 mph87%29.95 "Hg10 mi
7:50 AM45 °FClear.12 mph87%29.95 "Hg10 mi
7:20 AM45 °FClear.13 mph81%29.95 "Hg10 mi
6:50 AM45 °FClear.14 mph87%29.95 "Hg10 mi
6:20 AM45 °FPassing clouds.12 mph87%29.95 "HgN/A
5:50 AM45 °FPassing clouds.12 mph87%29.92 "HgN/A
5:20 AM45 °FPassing clouds.14 mph87%29.92 "HgN/A
4:50 AM45 °FPassing clouds.14 mph87%29.92 "HgN/A
4:20 AM45 °FPassing clouds.9 mph87%29.95 "HgN/A
3:50 AM45 °FPassing clouds.8 mph87%29.95 "HgN/A
3:20 AM45 °FPassing clouds.8 mph87%29.95 "HgN/A
2:50 AM43 °FQuite cool.9 mph93%29.95 "HgN/A
2:20 AM45 °FClear.9 mph87%29.95 "Hg10 mi
1:50 AM45 °FClear.12 mph87%29.95 "Hg10 mi
1:20 AM45 °FClear.10 mph87%29.95 "Hg10 mi
12:50 AM45 °FClear.9 mph87%29.95 "Hg10 mi
12:20 AM45 °FClear.8 mph87%29.95 "Hg10 mi
11:50 PM
Sun, Oct 23
45 °FPassing clouds.9 mph87%29.95 "HgN/A
11:20 PM45 °FClear.8 mph87%29.95 "Hg10 mi
10:50 PM43 °FClear.7 mph93%29.95 "Hg10 mi
10:20 PM45 °FClear.7 mph87%29.95 "Hg10 mi
9:50 PM45 °FPassing clouds.3 mph87%29.95 "HgN/A
9:20 PM45 °FPassing clouds.7 mph87%29.92 "HgN/A
8:50 PM46 °FPassing clouds.8 mph82%29.92 "HgN/A
8:20 PM46 °FClear.10 mph82%29.92 "Hg10 mi
7:50 PM46 °FClear.8 mph82%29.92 "Hg10 mi
7:20 PM46 °FPassing clouds.8 mph82%29.92 "HgN/A
6:50 PM48 °FPassing clouds.8 mph76%29.89 "HgN/A
6:20 PM48 °FPassing clouds.9 mph82%29.89 "HgN/A
5:50 PM50 °FScattered clouds.9 mph76%29.92 "HgN/A
5:20 PM50 °FScattered clouds.10 mph71%29.92 "HgN/A
4:50 PM52 °FScattered clouds.13 mph67%29.92 "HgN/A
4:20 PM52 °FPartly sunny.13 mph67%29.92 "HgN/A
3:50 PM52 °FScattered clouds.10 mph67%29.92 "HgN/A
3:20 PM52 °FScattered clouds.14 mph62%29.92 "HgN/A
2:50 PM54 °FScattered clouds.16 mph63%29.92 "HgN/A
2:20 PM54 °FScattered clouds.17 mph58%29.92 "HgN/A
1:50 PM52 °FScattered clouds.18 mph62%29.92 "HgN/A
1:20 PM50 °FScattered clouds.17 mph71%29.95 "HgN/A
12:50 PM50 °FScattered clouds.17 mph67%29.95 "HgN/A
12:20 PM52 °FScattered clouds.17 mph67%29.98 "HgN/A
11:50 AM52 °FScattered clouds.17 mph67%29.98 "HgN/A
11:20 AM50 °FPassing clouds.14 mph71%29.98 "HgN/A
Weather by CustomWeather, © 2016

See weather overviewHow to use our weather pages